Regional Weather Roundup
Issued by NWS

Home | Current Version | Previous Version | Text Only | Print | Product List | Glossary On
Versions: 1 2 3 4 5 6 7 8 9 10 11 12 13 14 15 16 17 18 19 20 21 22 23 24 25 26 27 28 29 30 31 32 33 34 35 36 37 38 39 40 41 42 43 44 45 46 47 48 49 50
000
ASUS46 KLOX 011612
RWRCA

SOUTHERN CALIFORNIA WEATHER ROUNDUP
NATIONAL WEATHER SERVICE OXNARD CALIFORNIA
900 AM PDT FRI AUG 01 2014

NOTE: "FAIR" INDICATES FEW OR NO CLOUDS BELOW 12,000 FEET WITH NO
SIGNIFICANT WEATHER AND/OR OBSTRUCTIONS TO VISIBILITY.

  -  STATIONS PRECEEDED BY AN ASTERISK (*) ARE NOT NWS OR FAA
     STATIONS AND ARE NOT SUBJECT TO NWS AND FAA QUALITY CONTROL.

CAZ041-042-087-011700-
LA AND ORANGE COUNTY COASTAL AREAS


CITY           SKY/WX    TMP DP  RH WIND       PRES   REMARKS
L.A. DOWNTOWN  SUNNY     75  63  66 VRB3      29.93R
L.A. AIRPORT   MOSUNNY   72  63  73 SE3       29.94R
LONG BEACH     MOSUNNY   74  64  71 CALM      29.93S

CITY           SKY/WX    TMP DP  RH WIND       PRES   REMARKS
AVALON           N/A    N/A N/A N/A MISG        N/A
FULLERTON      SUNNY     75  63  66 SW3       29.91F
*GETTY CENTER    N/A     70  63  78 S3          N/A
HAWTHORNE      MOSUNNY   73  63  70 VRB5      29.93S
*LEO CARRILLO    N/A     68  65  89 E5          N/A
*LOS ALAMITOS  MOSUNNY   74  64  71 CALM      29.92F
*REDONDO BEACH   N/A     72  65  80 CALM      29.93S
SANTA ANA      MOSUNNY   76  62  62 S3        29.92S
STA MONICA APT MOSUNNY   73  62  68 E5        29.94R
TORRANCE       MOSUNNY   75  64  69 CALM      29.94R
*UCLA            N/A     72  61  68 E3        29.91S

$$

CAZ547-548-048-011700-
LA COUNTY VALLEYS AND INLAND EMPIRE


CITY           SKY/WX    TMP DP  RH WIND       PRES   REMARKS
BURBANK        SUNNY     71  61  70 VRB6      29.94R
VAN NUYS       SUNNY     74  60  61 VRB3      29.94R

CITY           SKY/WX    TMP DP  RH WIND       PRES   REMARKS
CORONA AIRPORT SUNNY     75  63  66 CALM      29.94S
*CHATSWORTH      N/A     75  62  64 NE2       29.88S
CHINO          SUNNY     75  64  68 CALM      29.95S
*CLAREMONT       N/A     86  58  38 CALM        N/A
MARCH AFB      SUNNY     80  61  51 CALM      29.95F
*NORTHRIDGE      N/A     75  59  57 E2          N/A
ONTARIO        MOSUNNY   77  61  57 CALM      29.94S
*PASADENA        N/A     75  66  73 E3          N/A
POMONA         SUNNY     75  59  57 CALM      29.97S
RIVERSIDE      SUNNY     76  60  57 CALM      29.93F
SAN BERNARDINO MOSUNNY   77  57  50 CALM      29.94F
*SAN RAFAEL HI   N/A     80  67  63 SW3         N/A
*SAUGUS          N/A     83  58  41 N2          N/A
*WHITEMAN AP   SUNNY     72  61  68 CALM      29.98R
*WHITTIER HILL   N/A     79  68  69 CALM        N/A
*WOODLAND HILL   N/A     75  61  60 NE3         N/A

$$

CAZ054-055-011700-
LA AND SAN BERNARDINO COUNTY MOUNTAINS


CITY           SKY/WX    TMP DP  RH WIND       PRES   REMARKS
*ACTON           N/A     80  42  25 N5          N/A
*BIG BEAR AIRP SUNNY     72  37  28 CALM      30.32S
*BIG PINES       N/A     76  39  25 CALM        N/A
*CHILAO          N/A     83  38  19 S6          N/A
MT WILSON NWS    N/A    N/A N/A N/A MISG        N/A
SANDBERG       SUNNY     85  36  17 N13G20    30.15R
*WARM SPRINGS    N/A     85  46  25 CALM        N/A

$$

CAZ028-029-059-060-099-011700-
ANTELOPE VALLEY AND SURROUNDING AREAS


CITY           SKY/WX    TMP DP  RH WIND       PRES   REMARKS
LANCASTER      SUNNY     91  44  19 CALM      29.98R
PALMDALE       SUNNY     90  44  20 VRB3      29.99S
*POPPY PARK      N/A     94  46  18 W10         N/A  HX  90

CITY           SKY/WX    TMP DP  RH WIND       PRES   REMARKS
29 PALMS       MOSUNNY   90  48  23 VRB3      30.04S
BARSTOW/DAGGET SUNNY     91  44  19 W7        29.94F
BISHOP         SUNNY     81  46  29 W6        30.11F
CHINA LAKE     SUNNY     88  46  23 CALM      29.96R
EDWARDS AFB    SUNNY     87  46  23 VRB6      29.96R
MOJAVE         FAIR      90  43  19 E6        30.00R
NEEDLES        SUNNY     98  56  24 S9        29.92R HX  96
VICTORVILLE    SUNNY     86  45  23 S7        30.02S

$$

CAZ039-040-011700-
VENTURA AND SANTA BARBARA COUNTY COAST


CITY           SKY/WX    TMP DP  RH WIND       PRES   REMARKS
CAMARILLO      PTSUNNY   68  60  75 CALM      29.93R HAZE
NWS OXNARD       N/A     67  62  83 CALM      29.93R
OXNARD AIRPORT CLOUDY    66  61  84 CALM      29.93R HAZE
*POINT MUGU    CLOUDY    70  62  76 CALM      29.93S HAZE
SBA APT/GOLETA MOSUNNY   67  61  81 S3        29.93R
*SANTA BARBARA   N/A     69  61  74 NW2       30.00S
*VENTURA         N/A     66  62  85 SW3       29.96S

$$

CAZ044-045-011700-
VENTURA COUNTY VALLEYS


CITY           SKY/WX    TMP DP  RH WIND       PRES   REMARKS
*SIMI VALLEY     N/A     72  62  69 CALM      29.88R
*OJAI            N/A     76  63  63 W3        29.86R
*FILLMORE        N/A     71  65  82 CALM      29.83R

$$

CAZ053-011700-
VENTURA COUNTY MOUNTAINS


CITY           SKY/WX    TMP DP  RH WIND       PRES   REMARKS
*LOCKWOOD VLY    N/A     79  41  25 MISG        N/A
*ROSE VALLEY     N/A     84  52  32 MISG        N/A

$$

CAZ034-035-036-011700-
CENTRAL COAST AND SANTA YNEZ VALLEY


CITY           SKY/WX    TMP DP  RH WIND       PRES   REMARKS
SAN LUIS OBISP CLOUDY    62  58  86 CALM      29.94S
SANTA MARIA    CLOUDY    64  58  80 S3        29.95R FOG

CITY           SKY/WX    TMP DP  RH WIND       PRES   REMARKS
*CAL POLY SLO    N/A     61  61 100 SE1         N/A
*LOMPOC        CLOUDY    61  55  82 MISG      29.96R
*PISMO BEACH     N/A     60  59  96 W2        29.95S

$$

CAZ037-038-051-011700-
SAN LUIS OBISPO COUNTY INTERIOR AND CUYAMA VALLEY


CITY           SKY/WX    TMP DP  RH WIND       PRES   REMARKS
*CUYAMA          N/A     82  51  34 E2        29.84S
PASO ROBLES    SUNNY     73  51  46 CALM      29.93S

$$

CAZ032-033-061-011700-
SOUTHERN DESERTS


CITY           SKY/WX    TMP DP  RH WIND       PRES   REMARKS
BLYTHE           N/A    N/A N/A N/A MISG      29.90R
IMPERIAL       MOSUNNY   96  72  45 S12       29.85R HX 104
PALM SPRINGS   MOSUNNY   92  69  47 SE6       29.92S HX  97
THERMAL        SUNNY     93  74  53 W5        29.86R HX 103

$$

ELSEWHERE ACROSS THE WESTERN UNITED STATES AND MEXICO


CITY           SKY/WX    TMP DP  RH WIND       PRES   REMARKS
DENVER, CO     PTSUNNY   72  50  45 SW5       30.29S
GRAND CANYON,  MOSUNNY   71  50  47 SW10      30.34R
HONOLULU, HI   PTCLDY    79  68  69 NE8       29.98R
KAHULUI, MAUI  PTCLDY    72  64  78 E5        29.98R
LAKE TAHOE, CA MOSUNNY   68  47  46 CALM      30.27F
LAS VEGAS, NV  MOSUNNY   92  52  25 VRB5      29.94R
MAMMOTH LAKES, FAIR      66  45  45 SE3       30.35S
MEXICO CITY, M SUNNY     68  45  42 NE6       30.39S
PHOENIX, AZ    CLOUDY    84  68  58 SE8       29.98F
PORTLAND, OR   CLOUDY    67  54  63 NW6       30.00F
RENO, NV       PTSUNNY   75  48  38 CALM      30.16S
SALT LAKE CITY MOSUNNY   77  50  38 CALM      30.17S
SAN DIEGO, CA  PTSUNNY   71  63  75 W5        29.94R
SAN FRANCISCO, MOSUNNY   64  58  80 NW13      29.92R
SAN JOSE, CA   MOSUNNY   67  60  78 CALM      29.91S
SEATTLE, WA    PTSUNNY   70  53  54 CALM      30.08R
TIJUANA, MEX   PTSUNNY   70  63  78 NW6       29.95S

$$

STATION/POSITION TIME  TEMP    WIND        PRES    VSBY  WAVE
                       AIR SEA DIR/SP/G                  HT/PER
                 (UTC) (F)     (DEG/KT/KT) (MB)    (MI)  (FT/S)
POINT ARGUELLO B NOT AVBL
WEST SANTA BARBA 1600   59 60  320/ 14/ 16 1013.2R         3/ 6
POINT CONCEPTION NOT AVBL
EAST SANTA BARBA 1500   63 63  160/  6/  8 1013.4R
SANTA MONICA BAY 1600   66 71  100/  4/  8 1013.2R         3/ 6


USA.gov is the U.S. government's official web portal to all federal, state and local government web resources and services.